Regional Weather Roundup
Issued by NWS Green Bay, WI

Home | Current Version | Previous Version | Graphics & Text | Print | Product List | Glossary Off
Versions: 1 2 3 4 5 6 7 8 9 10 11 12 13 14 15 16 17 18 19 20 21 22 23 24 25 26 27 28 29 30 31 32 33 34 35 36 37 38 39 40 41 42 43 44 45 46 47 48 49 50

559
ASUS43 KGRB 060000
RWRGRB

NORTH-CENTRAL AND NORTHEAST WISCONSIN REGIONAL WEATHER ROUNDUP
NATIONAL WEATHER SERVICE GREEN BAY WI
600 PM CST FRI FEB 05 2016

WIZ005-009-010>012-018-019-060100-
NORTH CENTRAL WISCONSIN

CITY           SKY/WX    TMP DP  RH WIND       PRES   REMARKS
IRONWOOD       CLOUDY    27  10  50 S9        30.11F
MANITOWISH WTR NOT AVBL
ARBOR VITAE    NOT AVBL
EAGLE RIVER    NOT AVBL
LAND O LAKES   NOT AVBL
RHINELANDER    CLEAR     22   7  52 SW10      30.18S
PHILLIPS       NOT AVBL
ANTIGO         NOT AVBL
TOMAHAWK       NOT AVBL
MERRILL        NOT AVBL
$$

WIZ013-073-060100-
NORTHEAST WISCONSIN

CITY           SKY/WX    TMP DP  RH WIND       PRES   REMARKS
IRON MOUNTAIN  CLOUDY    25   9  50 S5        30.20S
MARINETTE      CLEAR     21  12  68 SW6       30.27S
$$

WIZ017-030-035>037-045-060100-
CENTRAL WISCONSIN

CITY           SKY/WX    TMP DP  RH WIND       PRES   REMARKS
MEDFORD        NOT AVBL
WAUSAU         CLEAR     23  12  62 CALM      30.23S
MOSINEE        CLEAR     19  14  79 S5        30.25F
MARSHFIELD     CLOUDY    22  11  62 SW6       30.24S
WISC RAPIDS    CLOUDY    23  14  68 S6        30.28F
STEVENS POINT  NOT AVBL
WAUPACA        NOT AVBL
SHAWANO        NOT AVBL
CLINTONVILLE   NOT AVBL
WAUTOMA        NOT AVBL
$$

WIZ038-039-048-051-060100-
FOX VALLEY

CITY           SKY/WX    TMP DP  RH WIND       PRES   REMARKS
NWS GREEN BAY  CLOUDY    20  14  77 S3        30.30S
APPLETON       MOCLDY    23  16  74 S7        30.27S
OSHKOSH        CLOUDY    24  15  68 SW8       30.30S
FOND DU LAC    CLOUDY    23  15  71 S6        30.31S
$$

WIZ022-050-052-060100-
EAST CENTRAL WISCONSIN

CITY           SKY/WX    TMP DP  RH WIND       PRES   REMARKS
EPHRAIM        NOT AVBL
STURGEON BAY   CLOUDY    21  10  63 SW6       30.30S
MANITOWOC      NOT AVBL
SHEBOYGAN        N/A     22  14  71 SW6       30.32S
$$

LMZ563-521-522-541>543-060100-
LAKESHORE

STATION/POSITION TIME  TEMP    WIND        PRES    VSBY  WAVE
                       AIR SEA DIR/SP/G                  HT/PER
                 (UTC) (F)     (DEG/KT/KT) (MB)    (MI)  (FT/S)
SHEBOYGAN LKSHOR 2300   27     260/  7/  8 1028.1R
NORTHPORT PIER   2300   23     200/  2/ 13 1025.1F
CHAMBERS ISLAND  2300   22     180/  4/  7 1025.4
$$




USA.gov is the U.S. government's official web portal to all federal, state and local government web resources and services.